Meiringen, Switzerland 16 day weather forecast

Slopes altitude range 1060 m - 2435m

Number of lifts: 18 Pistes: 60km

In some cases the lift and piste totals shown are for the ski domain (e.g. Three Valleys) rather than individual resort (e.g. Courchevel)

Overview

The 16 day weather forecast is fully updated 4 times every day.

    • Mon 22 APR 2019
    • Mon 22
    • 9C 19C
    • Tue 23 APR 2019
    • Tue 23
    • 10C 16C
    • Wed 24 APR 2019
    • Wed 24
    • 10C 22C
    • Thu 25 APR 2019
    • Thu 25
    • 7C 21C
    • Fri 26 APR 2019
    • Fri 26
    • 3C 6C
    • Sat 27 APR 2019
    • Sat 27
    • 3C 12C
    • Sun 28 APR 2019
    • Sun 28
    • 7C 16C
    • Mon 29 APR 2019
    • Mon 29
    • 9C 18C
    • Tue 30 APR 2019
    • Tue 30
    • 3C 9C
    • Wed 01 MAY 2019
    • Wed 01
    • 3C 11C
    • Thu 02 MAY 2019
    • Thu 02
    • 3C 13C
    • Fri 03 MAY 2019
    • Fri 03
    • 3C 21C
    • Sat 04 MAY 2019
    • Sat 04
    • 8C 21C
    • Sun 05 MAY 2019
    • Sun 05
    • 8C 15C
    • Mon 06 MAY 2019
    • Mon 06
    • 5C 12C
    • Tue 07 MAY 2019
    • Tue 07
    • 1C 8C

Date:

Time Type 0°C level Temp Chill Snow Cloud Speed Gust Dir Press
3:00 3195m 6°C 6_5 0cm 94% 5mph 5mph 1013mB
6:00 3177m 6°C 6_4 0cm 95% 4mph 4mph 1012mB
9:00 3232m 9°C 9_2 0cm 100% 2mph 4mph 1008mB
12:00 3234m 19°C 19_5 0cm 99% 5mph 6mph 1006mB
15:00 3187m 19°C 19_5 0cm 100% 5mph 8mph 1003mB
18:00 3198m 19°C 19_3 0cm 99% 3mph 4mph 1003mB
21:00 3214m 9°C 9_5 0cm 97% 5mph 7mph 1003mB
0:00 3139m 8°C 8_5 0cm 98% 5mph 6mph 1003mB
3:00 2876m 8°C 8_5 0cm 100% 5mph 7mph 1001mB
6:00 2732m 8°C 8_3 0cm 100% 3mph 4mph 1000mB
9:00 2717m 10°C 10_2 0cm 100% 2mph 2mph 999mB
12:00 2734m 16°C 16_5 0cm 100% 5mph 5mph 999mB
15:00 2790m 17°C 17_1 0cm 100% 1mph 2mph 998mB
18:00 2890m 17°C 17_2 0cm 100% 2mph 2mph 1000mB
21:00 2917m 8°C 8_5 0cm 100% 5mph 6mph 1002mB
0:00 2876m 7°C 7_5 0cm 100% 5mph 6mph 1004mB
3:00 2858m 6°C 6_4 0cm 46% 4mph 5mph 1005mB
6:00 2969m 6°C 6_3 0cm 57% 3mph 4mph 1005mB
9:00 3064m 10°C 10_2 0cm 97% 2mph 5mph 1005mB
12:00 2847m 22°C 22_1 0cm 98% 1mph 7mph 1006mB
15:00 2656m 19°C 19_5 0cm 98% 5mph 7mph 1007mB
18:00 2437m 19°C 19_5 0cm 99% 5mph 8mph 1010mB
21:00 2639m 5°C 5_2 0cm 70% 2mph 3mph 1014mB
0:00 3205m 5°C 5_4 0cm 69% 4mph 4mph 1014mB
3:00 3253m 4°C 4_4 0cm 90% 4mph 4mph 1014mB
6:00 3235m 4°C 4_3 0cm 53% 3mph 4mph 1014mB
9:00 3217m 7°C 7_1 0cm 1% 1mph 5mph 1013mB
12:00 2766m 21°C 21_2 0cm 29% 2mph 5mph 1013mB
15:00 2805m 21°C 21_2 0cm 87% 2mph 4mph 1012mB
18:00 2704m 21°C 21_2 0cm 81% 2mph 4mph 1013mB
21:00 2595m 6°C 6_1 0cm 89% 1mph 2mph 1015mB
0:00 2361m 4°C 4_3 0cm 68% 3mph 4mph 1016mB
3:00 1670m 4°C 4_5 0cm 92% 5mph 11mph 1016mB
6:00 1435m 3°C 3_6 0cm 96% 6mph 13mph 1018mB
9:00 1552m 3°C 3_5 0cm 100% 5mph 10mph 1020mB
12:00 1542m 6°C 6_4 0cm 100% 4mph 7mph 1020mB
15:00 1776m 7°C 7_4 0cm 100% 4mph 9mph 1021mB
18:00 1723m 8°C 8_4 0cm 100% 4mph 8mph 1023mB
21:00 1646m 3°C 3_5 0cm 97% 5mph 10mph 1026mB
0:00 1567m 3°C 3_5 0cm 97% 5mph 10mph 1028mB
3:00 1568m 2°C 2_5 0cm 98% 5mph 7mph 1029mB
6:00 1576m 1°C 1_4 0cm 68% 4mph 7mph 1029mB
9:00 1757m 3°C 3_6 0cm 39% 6mph 10mph 1028mB
12:00 2029m 12°C 12_7 0cm 67% 7mph 12mph 1027mB
15:00 2177m 13°C 13_7 0cm 94% 7mph 12mph 1026mB
18:00 2285m 13°C 13_4 0cm 96% 4mph 5mph 1027mB
21:00 2391m 5°C 5_6 0cm 95% 6mph 7mph 1029mB
0:00 2437m 4°C 4_6 0cm 95% 6mph 7mph 1028mB
3:00 2425m 4°C 4_6 0cm 94% 6mph 7mph 1027mB
6:00 2556m 4°C 4_5 0cm 96% 5mph 10mph 1027mB
9:00 2597m 7°C 7_7 0cm 93% 7mph 12mph 1025mB
12:00 2602m 16°C 16_8 0cm 68% 8mph 12mph 1023mB
15:00 2754m 16°C 16_7 0cm 5% 7mph 12mph 1022mB
18:00 2760m 16°C 16_3 0cm 5% 3mph 4mph 1022mB
21:00 2674m 7°C 7_5 0cm 45% 5mph 6mph 1023mB
0:00 2727m 6°C 6_6 0cm 38% 6mph 7mph 1022mB
3:00 2729m 6°C 6_6 0cm 95% 6mph 7mph 1019mB
6:00 2778m 6°C 6_5 0cm 96% 5mph 11mph 1017mB
9:00 2707m 9°C 9_13 0cm 97% 13mph 26mph 1014mB
12:00 2756m 18°C 18_18 0cm 98% 18mph 34mph 1011mB
15:00 2723m 18°C 18_19 0cm 99% 19mph 36mph 1009mB
18:00 2615m 18°C 18_9 0cm 99% 9mph 27mph 1010mB
21:00 2504m 9°C 9_6 0cm 100% 6mph 20mph 1010mB
0:00 2178m 7°C 7_7 0cm 100% 7mph 21mph 1010mB
3:00 1586m 5°C 5_8 0cm 100% 8mph 24mph 1010mB
6:00 1365m 3°C 3_8 0cm 100% 8mph 23mph 1011mB
9:00 1553m 3°C 3_12 0cm 64% 12mph 21mph 1011mB
12:00 1762m 9°C 9_12 0cm 71% 12mph 19mph 1011mB
15:00 1692m 9°C 9_8 0cm 99% 8mph 14mph 1011mB
18:00 1690m 9°C 9_3 0cm 97% 3mph 4mph 1012mB
21:00 1650m 2°C 2_5 0cm 94% 5mph 6mph 1015mB
0:00 1420m 0°C 0_5 0cm 47% 5mph 6mph 1016mB
3:00 1000m 0°C 0_5 0cm 0% 5mph 6mph 1016mB
6:00 1445m -1°C -1_3 0cm 0% 3mph 5mph 1016mB
9:00 1576m 3°C 3_4 0cm 3% 4mph 6mph 1015mB
12:00 1838m 11°C 11_6 0cm 41% 6mph 9mph 1013mB
15:00 1866m 11°C 11_6 0cm 93% 6mph 8mph 1012mB
18:00 1832m 11°C 11_1 0cm 77% 1mph 1mph 1013mB
21:00 1804m 2°C 2_4 0cm 62% 4mph 5mph 1015mB
0:00 1840m 2°C 2_3 0cm 79% 3mph 4mph 1013mB
Afternoon 0mm 0 1927m 13°C 13_5 0cm 77% 5mph 7mph 1010mB
Morning 0.00520833mm 0.0625 2154m 3°C 3_4 0cm 12% 4mph 5mph 1012mB
Afternoon 0mm 0 2491m 21°C 21_1 0cm 16% 1mph 6mph 1006mB
Morning 0mm 0 2761m 9°C 9_7 0cm 70% 7mph 13mph 1007mB
Afternoon 0mm 0 2777m 21°C 21_4 0cm 71% 4mph 8mph 1001mB
Morning 0.00520833mm 0 2941m 9°C 9_6 0cm 74% 6mph 9mph 1002mB
Afternoon 0.359375mm 2.125 2696m 15°C 15_4 0cm 63% 4mph 6mph 999mB
Morning 2.21354mm 0.5625 1943m 6°C 6_8 0cm 100% 8mph 18mph 1002mB
Afternoon 0.15625mm 0 1895m 12°C 12_13 0cm 100% 13mph 25mph 1005mB
Morning 0.0833333mm 0.4375 1233m 3°C 3_6 4cm 94% 6mph 12mph 1014mB
Afternoon 0.0729167mm 0.5 1389m 8°C 8_6 4cm 65% 6mph 9mph 1017mB
Morning 0.00520833mm 0.0625 715m -1°C -1_5 0cm 31% 5mph 6mph 1023mB

16 day outlook at a glance

Forecast issued: 22/04/2019 08:04:38

Chat

Your comments and questions. In a resort? Let us know what it's like!


Characters left 250

For terms and conditions see Readers Comments on the Cookie and privacy policy page.